Home > Weather > Baar > Past weeks

Flag for Switzerland Past Weather in Baar, Zug, Switzerland — Yesterday and Last 2 Weeks

Now
70 °F

Mild.


Feels Like: 77 °F
Forecast: 51 / 78 °F
Wind: 6 mph from Northwest

Location: Zuerich-Fluntern

Current Time: Jun 27, 2016 at 8:34:46 PM

Latest Report: Jun 27, 2016 at 7:00 PM


Visibility: N/A

Pressure: 30.10 "Hg

Humidity: 43%

Dew Point: 46 °F

Location of BaarLocation

Past Weather in Baar — Graph

°F

Baar Temperature Yesterday

Maximum temperature yesterday: 67 °F (at 2:00 PM)
Minimum temperature yesterday: 56 °F (at 6:00 AM)
Average temperature yesterday: 60 °F

High & Low Weather Summary for the Past Weeks

 TemperatureHumidityPressure
High90 °F (Jun 23, 6:00 PM)97% (Jun 17, 12:00 AM)30.28 "Hg (Jun 17, 12:00 AM)
Low48 °F (Jun 17, 6:00 AM)38% (Jun 24, 3:00 PM)29.59 "Hg (Jun 16, 5:00 AM)
Average61 °F81%29.98 "Hg
* Reported Jun 12 7:00 PM — Jun 27 7:00 PM, Baar, Weather by CustomWeather, © 2016

Note: Actual official high and low records may vary slightly from our data, if they occured in-between our weather recording intervals... More about our weather records

Advertising

Baar Weather History for the Previous 24 Hours

Scroll right to see more
 ConditionsComfort  
Time TempWeatherWind HumidityBarometerVisibility
7:00 PM
Mon, Jun 27
70 °FMild.6 mph43%30.10 "HgN/A
6:00 PM68 °FMild.3 mph46%30.11 "HgN/A
5:00 PM72 °FMild.6 mph39%30.10 "HgN/A
4:00 PM69 °FMild.3 mph41%30.12 "HgN/A
3:00 PM69 °FMild.3 mph46%30.13 "HgN/A
2:00 PM69 °FPartly sunny.6 mph41%30.13 "HgN/A
1:00 PM67 °FMild.6 mph43%30.15 "HgN/A
12:00 PM64 °FMild.6 mph55%30.17 "HgN/A
11:00 AM64 °FMild.3 mph54%30.18 "HgN/A
10:00 AM60 °FRefreshingly cool.3 mph59%30.19 "HgN/A
9:00 AM60 °FCool.5 mph68%30.19 "HgN/A
8:00 AM58 °FScattered clouds.3 mph72%30.19 "HgN/A
7:00 AM57 °FCool.2 mph78%30.18 "HgN/A
6:00 AM58 °FCool.2 mph78%30.18 "HgN/A
5:00 AM58 °FCool.5 mph77%30.17 "HgN/A
4:00 AM58 °FCool.2 mph78%30.16 "HgN/A
3:00 AM58 °FCool.1 mph79%30.16 "HgN/A
2:00 AM59 °FCool.2 mph76%30.15 "HgN/A
1:00 AM60 °FCool.3 mph72%30.14 "HgN/A
12:00 AM60 °FCool.2 mph82%30.14 "HgN/A
11:00 PM
Sun, Jun 26
60 °FCool.1 mph77%30.13 "HgN/A
10:00 PM60 °FCool.2 mph80%30.11 "HgN/A
9:00 PM61 °FCool.2 mph76%30.09 "HgN/A
8:00 PM63 °FOvercast.3 mph64%30.08 "HgN/A
Weather by CustomWeather, © 2016

See weather overviewHow to use our weather pages